TimeEST,TemperatureF,Dew PointF,Humidity,Sea Level PressureIn,VisibilityMPH,Wind Direction,Wind SpeedMPH,Gust SpeedMPH,PrecipitationIn,Events,Conditions,WindDirDegrees,DateUTC
12:10 AM,36.3,32.7,87,30.12,5.0,SW,3.5,-,N/A,,Clear,220,2012-11-09 05:10:00
12:30 AM,36.5,33.3,88,30.12,5.0,WSW,4.6,-,N/A,,Mostly Cloudy,240,2012-11-09 05:30:00
12:50 AM,37.6,33.8,86,30.12,5.0,WSW,5.8,-,N/A,,Overcast,240,2012-11-09 05:50:00
1:10 AM,37.8,34.0,86,30.12,5.0,WSW,4.6,-,N/A,,Overcast,240,2012-11-09 06:10:00
1:30 AM,37.6,33.8,86,30.13,5.0,WSW,4.6,-,N/A,,Overcast,250,2012-11-09 06:30:00
1:50 AM,38.3,34.2,85,30.13,5.0,WSW,4.6,-,N/A,,Overcast,240,2012-11-09 06:50:00
2:10 AM,38.3,34.2,85,30.13,5.0,SW,4.6,-,N/A,,Overcast,220,2012-11-09 07:10:00
2:31 AM,38.5,34.3,85,30.13,5.0,SW,3.5,-,N/A,,Haze,220,2012-11-09 07:31:00
2:51 AM,38.3,34.3,86,30.13,5.0,SSW,3.5,-,N/A,,Overcast,210,2012-11-09 07:51:00
3:11 AM,38.3,34.3,86,30.13,5.0,Calm,Calm,-,N/A,,Overcast,0,2012-11-09 08:11:00
3:31 AM,38.3,34.3,86,30.13,5.0,SSW,3.5,-,N/A,,Overcast,200,2012-11-09 08:31:00
3:51 AM,37.8,34.3,87,30.13,5.0,SSW,4.6,-,N/A,,Overcast,200,2012-11-09 08:51:00
4:11 AM,37.0,34.0,89,30.13,5.0,SSW,3.5,-,N/A,,Overcast,200,2012-11-09 09:11:00
4:31 AM,37.6,34.5,89,30.13,5.0,South,3.5,-,N/A,,Overcast,170,2012-11-09 09:31:00
4:51 AM,37.6,34.3,88,30.13,5.0,South,3.5,-,N/A,,Overcast,180,2012-11-09 09:51:00
5:12 AM,37.6,34.3,88,30.14,5.0,Calm,Calm,-,N/A,,Overcast,0,2012-11-09 10:12:00
5:32 AM,37.6,34.7,89,30.14,5.0,Calm,Calm,-,N/A,,Overcast,0,2012-11-09 10:32:00
5:52 AM,37.4,34.2,88,30.14,5.0,South,3.5,-,N/A,,Overcast,180,2012-11-09 10:52:00
6:12 AM,36.9,34.0,89,30.14,5.0,South,4.6,-,N/A,,Overcast,190,2012-11-09 11:12:00
6:52 AM,37.8,34.7,89,30.13,5.0,SSW,5.8,-,N/A,,Overcast,200,2012-11-09 11:52:00
7:12 AM,37.9,34.7,88,30.13,5.0,SSW,4.6,-,N/A,,Overcast,200,2012-11-09 12:12:00
7:32 AM,38.3,34.7,87,30.14,5.0,SSW,6.9,-,N/A,,Overcast,200,2012-11-09 12:32:00
7:52 AM,38.3,34.7,87,30.15,4.0,SSW,5.8,-,N/A,,Overcast,200,2012-11-09 12:52:00
8:13 AM,38.5,34.7,86,30.15,4.0,SSW,4.6,-,N/A,,Overcast,210,2012-11-09 13:13:00
8:33 AM,38.8,34.9,86,30.15,4.0,SSW,6.9,-,N/A,,Overcast,200,2012-11-09 13:33:00
8:53 AM,39.0,34.9,85,30.15,4.0,SSW,5.8,-,N/A,,Overcast,200,2012-11-09 13:53:00
9:13 AM,39.2,35.1,85,30.15,4.0,SSW,4.6,-,N/A,,Overcast,200,2012-11-09 14:13:00
9:33 AM,39.9,35.6,85,30.15,4.0,South,5.8,-,N/A,,Overcast,190,2012-11-09 14:33:00
9:53 AM,40.6,36.0,83,30.15,4.0,SSW,5.8,-,N/A,,Haze,200,2012-11-09 14:53:00
10:13 AM,41.9,36.7,82,30.15,4.0,South,5.8,-,N/A,,Haze,190,2012-11-09 15:13:00
10:34 AM,42.8,37.0,80,30.15,4.0,SSW,6.9,-,N/A,,Haze,200,2012-11-09 15:34:00
10:54 AM,43.9,37.6,78,30.16,4.0,SSW,4.6,-,N/A,,Haze,200,2012-11-09 15:54:00
11:14 AM,45.1,38.1,76,30.15,5.0,SSW,6.9,-,N/A,,Haze,200,2012-11-09 16:14:00
11:34 AM,46.8,38.8,74,30.14,5.0,South,4.6,-,N/A,,Haze,180,2012-11-09 16:34:00
11:54 AM,49.1,39.0,68,30.13,5.0,South,5.8,-,N/A,,Haze,180,2012-11-09 16:54:00
12:14 PM,50.0,38.8,66,30.12,5.0,South,8.1,-,N/A,,Haze,190,2012-11-09 17:14:00
12:29 PM,50.5,38.7,64,30.11,7.0,SSE,6.9,-,N/A,,Overcast,160,2012-11-09 17:29:00
12:49 PM,50.2,38.5,64,30.10,7.0,SSE,8.1,-,N/A,,Overcast,150,2012-11-09 17:49:00
1:09 PM,50.9,38.5,62,30.09,7.0,SSE,4.6,-,N/A,,Overcast,150,2012-11-09 18:09:00
1:30 PM,52.0,38.1,59,30.09,7.0,SSW,4.6,-,N/A,,Overcast,210,2012-11-09 18:30:00
1:50 PM,51.6,37.6,59,30.09,7.0,SSE,4.6,-,N/A,,Mostly Cloudy,160,2012-11-09 18:50:00
2:10 PM,51.6,38.1,60,30.09,7.0,SSW,3.5,-,N/A,,Overcast,210,2012-11-09 19:10:00
2:30 PM,52.0,38.1,59,30.09,7.0,Calm,Calm,-,N/A,,Overcast,0,2012-11-09 19:30:00
2:50 PM,53.1,37.9,57,30.08,7.0,SE,4.6,-,N/A,,Mostly Cloudy,140,2012-11-09 19:50:00
3:10 PM,52.0,38.1,59,30.08,7.0,Calm,Calm,-,N/A,,Mostly Cloudy,0,2012-11-09 20:10:00
3:30 PM,51.8,38.8,61,30.08,7.0,East,3.5,-,N/A,,Overcast,80,2012-11-09 20:30:00
3:50 PM,51.8,39.0,62,30.08,7.0,East,3.5,-,N/A,,Overcast,80,2012-11-09 20:50:00
4:11 PM,51.4,40.1,65,30.08,7.0,Calm,Calm,-,N/A,,Overcast,0,2012-11-09 21:11:00
4:31 PM,50.4,40.1,68,30.07,7.0,East,4.6,-,N/A,,Overcast,80,2012-11-09 21:31:00
4:51 PM,49.3,40.3,71,30.08,7.0,ENE,8.1,-,N/A,,Overcast,60,2012-11-09 21:51:00
5:11 PM,48.0,40.1,74,30.08,5.0,ENE,8.1,-,N/A,,Haze,70,2012-11-09 22:11:00
5:31 PM,46.9,40.5,78,30.07,7.0,ENE,6.9,-,N/A,,Overcast,60,2012-11-09 22:31:00
5:51 PM,46.9,40.3,78,30.08,7.0,NE,5.8,-,N/A,,Overcast,50,2012-11-09 22:51:00
6:11 PM,44.8,39.2,81,30.08,5.0,ENE,5.8,-,N/A,,Haze,60,2012-11-09 23:11:00
6:31 PM,44.1,39.6,84,30.08,5.0,ENE,6.9,-,N/A,,Mostly Cloudy,60,2012-11-09 23:31:00
6:52 PM,45.1,40.1,82,30.09,5.0,ENE,6.9,-,N/A,,Haze,60,2012-11-09 23:52:00
7:12 PM,45.1,39.9,82,30.09,5.0,ENE,6.9,-,N/A,,Haze,60,2012-11-10 00:12:00
7:32 PM,45.5,39.7,80,30.10,5.0,NE,8.1,-,N/A,,Haze,50,2012-11-10 00:32:00
7:52 PM,45.0,39.7,82,30.09,5.0,NE,6.9,-,N/A,,Haze,50,2012-11-10 00:52:00
8:12 PM,44.6,39.7,83,30.10,5.0,NE,5.8,-,N/A,,Haze,50,2012-11-10 01:12:00
8:32 PM,44.6,39.6,82,30.10,5.0,NE,6.9,-,N/A,,Haze,50,2012-11-10 01:32:00
8:52 PM,44.1,39.4,84,30.10,5.0,NE,6.9,-,N/A,,Haze,50,2012-11-10 01:52:00
9:12 PM,43.7,39.4,85,30.10,5.0,NE,4.6,-,N/A,,Haze,50,2012-11-10 02:12:00
9:33 PM,43.9,39.2,84,30.11,5.0,NE,4.6,-,N/A,,Haze,40,2012-11-10 02:33:00
10:13 PM,44.1,39.6,84,30.11,5.0,NE,4.6,-,N/A,,Overcast,40,2012-11-10 03:13:00
10:33 PM,43.9,39.7,85,30.10,5.0,ENE,4.6,-,N/A,,Overcast,60,2012-11-10 03:33:00
10:53 PM,44.4,39.6,83,30.11,5.0,NE,3.5,-,N/A,,Overcast,40,2012-11-10 03:53:00
11:13 PM,44.2,39.6,84,30.10,5.0,ENE,4.6,-,N/A,,Overcast,70,2012-11-10 04:13:00
11:33 PM,44.2,39.6,84,30.10,5.0,NE,3.5,-,N/A,,Overcast,50,2012-11-10 04:33:00